Weather Roundup
Issued by NWS

Home | Current Version | Previous Version | Text Only | Print | Product List | Glossary On
Versions: 1 2 3 4 5 6 7 8 9 10 11 12 13 14 15 16 17 18 19 20 21 22 23 24 25 26 27 28 29 30 31 32 33 34 35 36 37 38 39 40 41 42 43 44 45 46 47 48 49 50
000
NZUS93 KARX 240759
HRRWXR

CURRENT HOURLY OBSERVATIONS ACROSS
MUCH OF THE UPPER MISSISSIPPI VALLEY
NATIONAL WEATHER SERVICE LA CROSSE WI
300 AM CDT TUE OCT 24 2017


...SOUTHEAST MINNESOTA...


CITY           SKY/WX    TMP DP  RH WIND       PRES   REMARKS
ROCHESTER      CLOUDY    41  31  67 NW20G31   29.76S
ROCHESTER/MAYO CLOUDY    42  30  62 NW21G29   29.75S
WINONA         CLOUDY    46  34  61 NW22G31   29.71S
AUSTIN         PTCLDY    39  28  65 NW17G35   29.79S WCI  30
ALBERT LEA     NOT AVBL
DODGE CENTER   CLOUDY    39  30  70 NW23G30     N/A  WCI  29
PRESTON        CLOUDY    42  30  62 NW15G26   29.73S
OWATONNA       MOCLDY    39  30  70 NW18G28   29.83S WCI  30
FARIBAULT      CLOUDY    39  30  70 NW12G21   29.84R WCI  32
$$

...ELSEWHERE IN MINNESOTA...


CITY           SKY/WX    TMP DP  RH WIND       PRES   REMARKS
MINNEAPOLIS    MOCLDY    42  32  67 NW18G29   29.83S
INTNL FALLS    CLOUDY    37  27  67 N20G26    29.96S WCI  27
DULUTH         CLOUDY    39  35  86 N24G33    29.75S WCI  28
RED WING       CLOUDY    46  28  49 NW13G28   29.76F
REDWOOD FALLS  PTCLDY    37  28  70 NW17G28   29.97S WCI  27
MANKATO        NOT AVBL
WORTHINGTON    CLOUDY    37  27  67 N26G35    30.00R WCI  25
FAIRMONT       PTCLDY    39  29  67 NW26G33   29.91R WCI  28
$$

...SOUTHWEST WISCONSIN...


CITY           SKY/WX    TMP DP  RH WIND       PRES   REMARKS
LA CROSSE      CLOUDY    48  38  68 N17G24    29.67S
PRAIRIE DU CHI CLOUDY    47  35  63 NW14      29.67F
BOSCOBEL       CLOUDY    46  42  86 W6        29.65F
LONE ROCK      LGT RAIN  46  44  93 NW17G26   29.61F
PLATTEVILLE    CLOUDY    45  44  97 NW10      29.64S
FORT MC COY    CLOUDY    43  40  91 NW10G21   29.65F
CAMP DOUGLAS   LGT RAIN  45  43  93 NW20      29.60S
MAUSTON-NEW LI RAIN      45  43  93 NW16G25   29.59S
VIROQUA        CLOUDY    43  42  97 NW13      29.64F
WIS DELLS      RAIN      45  43  93 NW15      29.57S
$$

...ELSEWHERE IN WISCONSIN...


CITY           SKY/WX    TMP DP  RH WIND       PRES   REMARKS
MILWAUKEE      LGT RAIN  51  49  92 W7        29.48F
MADISON        LGT RAIN  46  44  93 NW9       29.54F
GREEN BAY      CLOUDY    50  46  86 NW9       29.47S
EAU CLAIRE     NOT AVBL
BLACK RVR FLS  CLOUDY    44  37  77 NW10G20   29.65S
MEDFORD        CLOUDY    41  39  91 NW14      29.60S
WAUSAU         LGT RAIN  43  41  93 NW15G25   29.54F
WIS RAPIDS     LGT RAIN  45  42  89 N13G25    29.58S
MARSHFIELD     LGT RAIN  43  39  86 NW14G25   29.58F
RICE LAKE      CLOUDY    43  33  67 NW13G28   29.73F
$$

...NORTHEAST IOWA...


CITY           SKY/WX    TMP DP  RH WIND       PRES   REMARKS
WATERLOO       CLOUDY    44  28  53 NW24G39   29.75S
DUBUQUE        CLOUDY    45  36  70 NW15G26   29.65F
DECORAH        CLOUDY    45  32  61 NW20      29.69S
MASON CITY     CLEAR     40  29  64 NW23G33   29.83S WCI  30
CHARLES CITY   CLOUDY    43  28  56 NW22G31   29.77S
OELWEIN        CLOUDY    45  32  61 NW22G30   29.72F
$$

...ELSEWHERE IN IOWA...


CITY           SKY/WX    TMP DP  RH WIND       PRES   REMARKS
DES MOINES     CLOUDY    47  35  63 NW18G26   29.86F
IOWA CITY      CLOUDY    50  32  50 NW18G24   29.73F
FORT DODGE     PTCLDY    44  29  55 NW10G28   29.89S
MARSHALLTOWN   LGT RAIN  44  31  60 NW24G35   29.81S
CEDAR RAPIDS   CLOUDY    48  32  53 NW18      29.71F
$$

...NORTHERN ILLINOIS...


CITY           SKY/WX    TMP DP  RH WIND       PRES   REMARKS
CHICAGO-OHARE  LGT RAIN  48  45  89 W10       29.54F
CHICAGO-MIDWAY LGT RAIN  49  47  93 W10       29.55F FOG
MOLINE         CLOUDY    49  32  52 NW15G23   29.67F
ROCKFORD       LGT RAIN  47  44  90 NW13      29.59F
PEORIA         CLOUDY    49  35  58 W10G21    29.68F
$$

NOTE: "FAIR" INDICATES FEW OR NO CLOUDS BELOW 12,000 FEET WITH NO
SIGNIFICANT WEATHER AND/OR OBSTRUCTIONS TO VISIBILITY. WIND
SPEEDS ARE IN MILES-PER-HOUR.




USA.gov is the U.S. government's official web portal to all federal, state and local government web resources and services.